Printer-friendly version

IAU Minor Planet Center

Minor Planet Center

MPEC 2008-C82 : 2008 CK116

The following Minor Planet Electronic Circular may be linked-to from your own Web pages, but must not otherwise be redistributed electronically.


Read MPEC 2008-C81 Read MPEC 2008-C83


M.P.E.C. 2008-C82                                Issued 2008 Feb. 13, 15:57 UT

     The Minor Planet Electronic Circulars contain information on unusual
         minor planets and routine data on comets.  They are published
   on behalf of Commission 20 of the International Astronomical Union by the
          Minor Planet Center, Smithsonian Astrophysical Observatory,
                          Cambridge, MA 02138, U.S.A.

             Prepared using the Tamkin Foundation Computer Network

                              MPC@CFA.HARVARD.EDU
          URL http://www.cfa.harvard.edu/iau/mpc.html  ISSN 1523-6714

                                  2008 CK116

Observations:
     K08CB6K* C2008 02 10.22373 07 13 52.51 +14 40 38.8          20.2   EC082704
     K08CB6K  C2008 02 10.23576 07 13 56.32 +14 39 30.9          20.0   EC082704
     K08CB6K  C2008 02 10.24778 07 14 00.15 +14 38 22.3          19.9   EC082704
     K08CB6K  C2008 02 10.25982 07 14 04.02 +14 37 15.3          20.0   EC082704
     K08CB6K  C2008 02 12.23027 07 23 29.79 +12 02 34.8          20.5 V EC082G96
     K08CB6K  C2008 02 12.23130 07 23 30.01 +12 02 30.6          20.1 V EC082G96
     K08CB6K  C2008 02 12.23233 07 23 30.26 +12 02 26.5          20.5 V EC082G96
     K08CB6K  C2008 02 12.23335 07 23 30.51 +12 02 22.7          20.5 V EC082G96
     K08CB6K  C2008 02 12.28639 07 23 41.92 +11 58 54.6          20.7 R EC082854
     K08CB6K  C2008 02 12.29502 07 23 43.93 +11 58 20.2          20.7 R EC082854
     K08CB6K  C2008 02 12.30655 07 23 46.38 +11 57 34.3          20.5 R EC082854
     K08CB6K  C2008 02 13.15287 07 26 58.30 +11 06 39.6          20.6 V EC082G96
     K08CB6K  C2008 02 13.15730 07 26 59.13 +11 06 25.0          20.7 V EC082G96
     K08CB6K  C2008 02 13.16173 07 26 59.96 +11 06 10.2          20.9 V EC082G96
     K08CB6K  C2008 02 13.16622 07 27 00.82 +11 05 55.3          20.1 V EC082G96
     K08CB6K  C2008 02 13.22194 07 27 10.97 +11 02 48.3          20.2 R EC082H01
     K08CB6K  C2008 02 13.24652 07 27 15.53 +11 01 26.5          20.5 R EC082H01
     K08CB6K  C2008 02 13.25077 07 27 16.31 +11 01 12.3          20.3 R EC082H01

Observer details:
704 Lincoln Laboratory ETS, New Mexico.  Observers M. Bezpalko, D. Torres,
    R. Kracke, G. Spitz, J. Kistler.  Measurers J. Stuart, S. Scruggs.  1.0-m
    f/2.15 reflector + CCD.
854 Sabino Canyon Observatory, Tucson.  Observer J. E. McGaha.  0.36-m f/10.0
    Schmidt-Cassegrain + CCD.
G96 Mt. Lemmon Survey.  Observers R. A. Kowalski, A. D. Grauer.  Measurers
    E. C. Beshore, A. Boattini, G. J. Garradd, A. R. Gibbs, A. D. Grauer,
    R. E. Hill, R. A. Kowalski, S. M. Larson, R. H. McNaught.  1.5-m reflector
    + CCD.
H01 Magdalena Ridge Observatory, Socorro.  Observer W. H. Ryan.  2.4-m f/8.9
    reflector + CCD.

Orbital elements:
2008 CK116                                               Earth MOID = 0.0226 AU
Epoch 2007 Oct. 27.0 TT = JDT 2454400.5                 MPC
M 333.18201              (2000.0)            P               Q
n   0.58848770     Peri.   78.52673     +0.81166431     -0.55325947
a   1.4102987      Node   314.72081     +0.37782987     +0.74189054
e   0.5879550      Incl.   15.28913     +0.44547238     +0.37881709
P   1.67           H   23.4           G   0.15           U   9
Residuals in seconds of arc
080210 704  0.5-  0.5-    080212 G96  0.2-  0.2+    080213 G96  0.1+  0.0
080210 704  0.4-  0.0     080212 G96  0.2+  0.4+    080213 G96  0.1+  0.1-
080210 704  0.0   0.3-    080212 854  0.9-  0.1+    080213 G96  0.3+  0.0
080210 704  1.0+  1.0+    080212 854  1.1+  0.5-    080213 H01  0.0   0.2+
080212 G96  0.6-  0.4+    080212 854  0.3+  1.3-    080213 H01  0.0   0.3+
080212 G96  0.6-  0.2+    080213 G96  0.2+  0.2-    080213 H01  0.2-  0.2+

Ephemeris:
2008 CK116               a,e,i = 1.41, 0.59, 15                  q = 0.5811
Date    TT    R. A. (2000) Decl.     Delta      r     Elong.  Phase     V
2008 02 14    07 29.73   +10 22.6    0.155    1.119   146.2    29.4    20.9
2008 02 15    07 32.64   +09 37.0    0.167    1.129   145.9    29.4    21.1
2008 02 16    07 35.23   +08 57.6    0.179    1.139   145.5    29.4    21.2
2008 02 17    07 37.56   +08 23.2    0.191    1.149   145.0    29.5    21.4
2008 02 18    07 39.67   +07 53.0    0.203    1.159   144.5    29.7    21.5
2008 02 19    07 41.62   +07 26.4    0.215    1.169   144.0    29.8    21.7
2008 02 20    07 43.42   +07 02.8    0.227    1.179   143.4    30.0    21.8
2008 02 21    07 45.10   +06 41.8    0.240    1.189   142.9    30.1    22.0
2008 02 22    07 46.69   +06 23.0    0.252    1.198   142.3    30.3    22.1
2008 02 23    07 48.19   +06 06.1    0.265    1.208   141.7    30.5    22.2
2008 02 24    07 49.62   +05 50.9    0.277    1.218   141.1    30.7    22.4

Gareth V. Williams           (C) Copyright 2008 MPC           M.P.E.C. 2008-C82

Read MPEC 2008-C81 Read MPEC 2008-C83


Our Web policy. Index to the CBAT/MPC/ICQ pages.


Valid HTML 4.01!